TimeMDT,TemperatureF,Dew PointF,Humidity,Sea Level PressureIn,VisibilityMPH,Wind Direction,Wind SpeedMPH,Gust SpeedMPH,PrecipitationIn,Events,Conditions,WindDirDegrees,DateUTC
12:53 AM,21.9,12.9,68,30.12,10.0,Calm,Calm,-,N/A,,Clear,0,2013-03-26 06:53:00
1:53 AM,18.0,12.0,78,30.12,10.0,Calm,Calm,-,N/A,,Clear,0,2013-03-26 07:53:00
2:53 AM,18.0,12.0,78,30.10,10.0,South,3.5,-,N/A,,Clear,190,2013-03-26 08:53:00
3:53 AM,19.9,10.9,68,30.08,10.0,South,4.6,-,N/A,,Clear,180,2013-03-26 09:53:00
4:53 AM,19.9,12.0,71,30.07,10.0,South,4.6,-,N/A,,Clear,170,2013-03-26 10:53:00
5:53 AM,21.0,12.9,71,30.07,10.0,Calm,Calm,-,N/A,,Clear,0,2013-03-26 11:53:00
6:53 AM,19.0,14.0,81,30.08,10.0,SSE,3.5,-,N/A,,Clear,160,2013-03-26 12:53:00
7:53 AM,23.0,16.0,74,30.10,10.0,South,3.5,-,N/A,,Clear,180,2013-03-26 13:53:00
8:53 AM,28.0,16.0,61,30.08,10.0,Calm,Calm,-,N/A,,Partly Cloudy,0,2013-03-26 14:53:00
9:53 AM,32.0,18.0,56,30.09,10.0,NNW,3.5,-,N/A,,Mostly Cloudy,330,2013-03-26 15:53:00
10:53 AM,37.0,15.1,41,30.07,10.0,Calm,Calm,-,N/A,,Partly Cloudy,0,2013-03-26 16:53:00
11:53 AM,41.0,10.9,29,30.06,10.0,Calm,Calm,-,N/A,,Clear,0,2013-03-26 17:53:00
12:53 PM,45.0,8.1,22,30.03,10.0,Variable,3.5,-,N/A,,Clear,0,2013-03-26 18:53:00
1:53 PM,48.0,6.1,18,30.02,10.0,Variable,3.5,-,N/A,,Clear,0,2013-03-26 19:53:00
2:53 PM,48.0,6.1,18,30.00,10.0,Calm,Calm,-,N/A,,Clear,0,2013-03-26 20:53:00
3:53 PM,50.0,10.0,20,29.98,10.0,ENE,3.5,-,N/A,,Clear,70,2013-03-26 21:53:00
4:53 PM,51.1,10.0,19,29.96,10.0,NE,4.6,-,N/A,,Clear,40,2013-03-26 22:53:00
5:53 PM,50.0,10.0,20,29.97,10.0,Calm,Calm,-,N/A,,Clear,0,2013-03-26 23:53:00
6:53 PM,50.0,10.9,21,29.98,10.0,Calm,Calm,-,N/A,,Clear,0,2013-03-27 00:53:00
7:53 PM,39.9,12.0,32,30.00,10.0,Variable,3.5,-,N/A,,Clear,0,2013-03-27 01:53:00
8:53 PM,33.1,15.1,48,30.02,10.0,SSE,8.1,-,N/A,,Clear,160,2013-03-27 02:53:00
9:53 PM,35.1,18.0,50,30.02,10.0,SSE,11.5,-,N/A,,Clear,160,2013-03-27 03:53:00
10:53 PM,36.0,18.0,48,30.01,10.0,Calm,Calm,-,N/A,,Clear,0,2013-03-27 04:53:00
11:53 PM,35.1,18.0,50,30.01,10.0,Calm,Calm,-,N/A,,Clear,0,2013-03-27 05:53:00